TimeEDT,TemperatureF,Dew PointF,Humidity,Sea Level PressureIn,VisibilityMPH,Wind Direction,Wind SpeedMPH,Gust SpeedMPH,PrecipitationIn,Events,Conditions,WindDirDegrees,DateUTC
12:13 AM,69.8,64.4,83,29.98,6.0,SE,6.9,-,N/A,,Scattered Clouds,130,2013-10-07 04:13:00
12:51 AM,68.0,64.0,87,29.97,7.0,Variable,4.6,-,N/A,,Clear,0,2013-10-07 04:51:00
1:51 AM,68.0,63.0,84,29.96,9.0,SE,9.2,-,N/A,,Clear,140,2013-10-07 05:51:00
2:51 AM,68.0,64.0,87,29.95,10.0,South,10.4,-,N/A,,Mostly Cloudy,170,2013-10-07 06:51:00
3:51 AM,69.1,64.9,87,29.92,10.0,South,9.2,-,N/A,,Overcast,170,2013-10-07 07:51:00
4:51 AM,70.0,64.9,84,29.91,10.0,SSE,6.9,-,N/A,,Overcast,160,2013-10-07 08:51:00
5:51 AM,70.0,64.9,84,29.90,10.0,Variable,4.6,-,N/A,,Overcast,0,2013-10-07 09:51:00
6:51 AM,71.1,64.9,81,29.89,10.0,South,9.2,-,N/A,,Overcast,190,2013-10-07 10:51:00
7:51 AM,71.1,64.9,81,29.86,10.0,South,13.8,20.7,N/A,,Mostly Cloudy,170,2013-10-07 11:51:00
8:51 AM,72.0,64.9,78,29.85,10.0,South,12.7,21.9,N/A,,Overcast,170,2013-10-07 12:51:00
9:51 AM,70.0,66.0,87,29.84,3.0,South,9.2,19.6,0.00,Rain,Light Rain,170,2013-10-07 13:51:00
10:51 AM,72.0,68.0,87,29.80,5.0,South,11.5,20.7,0.01,Rain,Light Rain,170,2013-10-07 14:51:00
11:15 AM,73.4,68.0,83,29.79,10.0,South,13.8,24.2,0.00,,Overcast,170,2013-10-07 15:15:00
11:51 AM,75.0,68.0,79,29.76,10.0,South,16.1,-,0.00,,Overcast,170,2013-10-07 15:51:00
12:51 PM,73.0,69.1,87,29.73,1.8,SSW,21.9,32.2,0.02,Rain,Heavy Rain,200,2013-10-07 16:51:00
1:00 PM,71.6,69.8,94,29.76,0.2,SW,19.6,33.4,0.24,Fog-Rain,Heavy Rain,230,2013-10-07 17:00:00
1:06 PM,69.8,69.8,100,29.76,0.2,West,19.6,29.9,0.57,Fog-Rain,Heavy Rain,260,2013-10-07 17:06:00
1:16 PM,68.0,66.2,94,29.75,1.2,SW,13.8,27.6,0.82,Rain,Light Rain,230,2013-10-07 17:16:00
1:21 PM,69.8,66.2,88,29.74,8.0,SSW,10.4,23.0,0.82,Rain,Light Rain,210,2013-10-07 17:21:00
1:32 PM,69.8,66.2,88,29.78,0.8,SW,15.0,35.7,0.82,Rain,Heavy Rain,230,2013-10-07 17:32:00
1:45 PM,68.0,64.4,88,29.77,2.0,SW,15.0,25.3,1.04,Rain,Heavy Rain,230,2013-10-07 17:45:00
1:51 PM,68.0,64.9,90,29.76,3.0,SW,13.8,23.0,1.06,Rain,Rain,220,2013-10-07 17:51:00
2:03 PM,68.0,64.4,88,29.75,8.0,SW,11.5,-,0.01,Rain,Light Rain,220,2013-10-07 18:03:00
2:31 PM,68.0,64.4,88,29.79,6.0,SSW,9.2,-,0.04,Rain,Light Rain,210,2013-10-07 18:31:00
2:51 PM,68.0,64.0,87,29.80,6.0,SW,9.2,-,0.07,Rain,Light Rain,220,2013-10-07 18:51:00
3:01 PM,64.4,60.8,88,29.81,1.8,WNW,6.9,18.4,0.04,Rain,Heavy Rain,290,2013-10-07 19:01:00
3:15 PM,62.6,57.2,82,29.82,2.0,WNW,15.0,23.0,0.09,Rain,Rain,300,2013-10-07 19:15:00
3:24 PM,62.6,57.2,82,29.84,3.0,West,10.4,19.6,0.10,Rain,Light Rain,280,2013-10-07 19:24:00
3:51 PM,60.1,55.0,83,29.83,7.0,NW,8.1,19.6,0.13,Rain,Light Rain,310,2013-10-07 19:51:00
4:16 PM,57.2,53.6,88,29.88,9.0,West,10.4,-,0.04,Rain,Light Rain,270,2013-10-07 20:16:00
4:51 PM,59.0,55.0,87,29.88,10.0,WSW,4.6,-,0.04,,Overcast,250,2013-10-07 20:51:00
5:51 PM,59.0,55.0,87,29.90,10.0,WSW,4.6,-,N/A,,Overcast,250,2013-10-07 21:51:00
6:51 PM,57.9,55.0,90,29.92,10.0,SW,4.6,-,N/A,,Mostly Cloudy,220,2013-10-07 22:51:00
7:51 PM,57.0,54.0,89,29.94,10.0,WSW,5.8,-,N/A,,Clear,240,2013-10-07 23:51:00
8:51 PM,57.9,48.0,70,29.97,10.0,West,9.2,-,N/A,,Clear,270,2013-10-08 00:51:00
9:51 PM,57.0,46.9,69,29.98,10.0,West,6.9,-,N/A,,Clear,280,2013-10-08 01:51:00
10:51 PM,54.0,46.0,75,29.99,10.0,WSW,4.6,-,N/A,,Clear,250,2013-10-08 02:51:00
11:51 PM,50.0,44.1,80,30.02,10.0,SW,3.5,-,N/A,,Clear,230,2013-10-08 03:51:00